• In Hungary
  • List of Countries
  • For 7 days
  • Water Temperature
  • Satellite Maps
  • Weather Map
  • News
  • Weather Widgets
  • user-avatar
    Login

    Hourly Weather Tiwi

    Today, 17 October, Wednesday

    Time Temperature Precipitation Wind Pressure Humidity
    00:00 +27°C° 0 mm 2 mps 752 mmHg 74%
    01:00 +27°C° 0 mm 2 mps 752 mmHg 76%
    02:00 +26°C° 0 mm 2 mps 752 mmHg 75%
    03:00 +26°C° 0 mm 2 mps 752 mmHg 74%
    04:00 +26°C° 0 mm 1 mps 752 mmHg 72%
    05:00 +26°C° 0 mm 1 mps 752 mmHg 67%
    06:00 +27°C° 0 mm 1 mps 753 mmHg 62%
    07:00 +28°C° 0 mm 1 mps 753 mmHg 56%
    08:00 +30°C° 0 mm 2 mps 753 mmHg 46%
    09:00 +34°C° 0 mm 2 mps 753 mmHg 36%
    10:00 +37°C° 0 mm 3 mps 753 mmHg 25%
    11:00 +37°C° 0 mm 3 mps 753 mmHg 23%
    12:00 +38°C° 0 mm 2 mps 752 mmHg 20%
    13:00 +39°C° 0 mm 2 mps 752 mmHg 18%
    14:00 +39°C° 0 mm 2 mps 751 mmHg 18%
    15:00 +39°C° 0 mm 2 mps 751 mmHg 18%
    16:00 +39°C° 0 mm 2 mps 751 mmHg 17%
    17:00 +37°C° 0 mm 2 mps 751 mmHg 19%
    18:00 +34°C° 0 mm 1 mps 751 mmHg 21%
    19:00 +32°C° 0 mm 1 mps 751 mmHg 23%
    20:00 +31°C° 0 mm 1 mps 751 mmHg 22%
    21:00 +30°C° 0 mm 1 mps 751 mmHg 22%
    22:00 +28°C° 0 mm 0 mps 752 mmHg 21%
    23:00 +27°C° 0 mm 0 mps 751 mmHg 21%

    Tomorrow, 18 October, Thursday

    Time Temperature Precipitation Wind Pressure Humidity
    00:00 +29°C° 0 mm 1 mps 751 mmHg 21%
    01:00 +28°C° 0 mm 1 mps 751 mmHg 21%
    02:00 +28°C° 0 mm 1 mps 751 mmHg 22%
    03:00 +28°C° 0 mm 1 mps 751 mmHg 23%
    04:00 +28°C° 0 mm 2 mps 751 mmHg 24%
    05:00 +29°C° 0 mm 2 mps 751 mmHg 23%
    06:00 +29°C° 0 mm 2 mps 751 mmHg 23%
    07:00 +30°C° 0 mm 2 mps 752 mmHg 23%
    08:00 +33°C° 0 mm 3 mps 752 mmHg 21%
    09:00 +35°C° 0 mm 3 mps 752 mmHg 19%
    10:00 +37°C° 0 mm 3 mps 752 mmHg 18%
    11:00 +38°C° 0 mm 3 mps 752 mmHg 18%
    12:00 +38°C° 0 mm 3 mps 752 mmHg 18%
    13:00 +39°C° 0 mm 3 mps 751 mmHg 18%
    14:00 +38°C° 0 mm 3 mps 751 mmHg 19%
    15:00 +38°C° 0 mm 3 mps 751 mmHg 20%
    16:00 +38°C° 0 mm 3 mps 750 mmHg 21%
    17:00 +37°C° 0 mm 3 mps 751 mmHg 23%
    18:00 +35°C° 0 mm 2 mps 751 mmHg 26%
    19:00 +34°C° 0 mm 2 mps 751 mmHg 28%
    20:00 +34°C° 0 mm 2 mps 751 mmHg 30%
    21:00 +32°C° 0 mm 2 mps 752 mmHg 32%
    22:00 +32°C° 0 mm 2 mps 752 mmHg 34%
    23:00 +31°C° 0 mm 2 mps 752 mmHg 35%

    Day after tomorrow, 19 October, Friday

    Time Temperature Precipitation Wind Pressure Humidity
    00:00 +31°C° 0 mm 2 mps 752 mmHg 36%
    01:00 +31°C° 0 mm 2 mps 752 mmHg 36%
    02:00 +31°C° 0 mm 1 mps 752 mmHg 37%
    03:00 +31°C° 0 mm 1 mps 752 mmHg 37%
    04:00 +30°C° 0 mm 1 mps 752 mmHg 37%
    05:00 +30°C° 0 mm 2 mps 752 mmHg 37%
    06:00 +30°C° 0 mm 2 mps 752 mmHg 36%
    07:00 +30°C° 0 mm 2 mps 752 mmHg 35%
    08:00 +32°C° 0 mm 2 mps 753 mmHg 31%
    09:00 +35°C° 0 mm 2 mps 753 mmHg 27%
    10:00 +36°C° 0 mm 2 mps 754 mmHg 23%
    11:00 +36°C° 0 mm 2 mps 753 mmHg 23%
    12:00 +36°C° 0 mm 3 mps 753 mmHg 22%
    13:00 +36°C° 0 mm 3 mps 753 mmHg 22%
    14:00 +36°C° 0 mm 2 mps 752 mmHg 25%
    15:00 +35°C° 0 mm 2 mps 752 mmHg 27%
    16:00 +35°C° 0 mm 2 mps 752 mmHg 30%
    17:00 +34°C° 0 mm 2 mps 752 mmHg 33%
    18:00 +32°C° 0 mm 2 mps 752 mmHg 37%
    19:00 +31°C° 0 mm 2 mps 753 mmHg 41%
    20:00 +31°C° 0 mm 2 mps 753 mmHg 41%
    21:00 +31°C° 0 mm 2 mps 753 mmHg 41%
    22:00 +31°C° 0 mm 2 mps 754 mmHg 41%
    23:00 +30°C° 0 mm 2 mps 754 mmHg 43%

    20 October, Saturday

    Time Temperature Precipitation Wind Pressure Humidity
    00:00 +30°C° 0 mm 2 mps 753 mmHg 45%
    01:00 +30°C° 0 mm 2 mps 753 mmHg 47%
    02:00 +30°C° 0 mm 2 mps 753 mmHg 47%
    03:00 +29°C° 0 mm 2 mps 753 mmHg 48%
    04:00 +29°C° 0 mm 2 mps 753 mmHg 48%
    05:00 +29°C° 0 mm 3 mps 753 mmHg 48%
    06:00 +29°C° 0 mm 3 mps 754 mmHg 48%
    07:00 +29°C° 0 mm 3 mps 754 mmHg 49%
    08:00 +31°C° 0 mm 2 mps 754 mmHg 44%
    09:00 +32°C° 0 mm 2 mps 755 mmHg 39%
    10:00 +35°C° 0 mm 2 mps 755 mmHg 35%
    11:00 +35°C° 0 mm 2 mps 754 mmHg 33%
    12:00 +36°C° 0 mm 2 mps 754 mmHg 32%
    13:00 +37°C° 0 mm 3 mps 753 mmHg 30%
    14:00 +36°C° 0 mm 3 mps 753 mmHg 31%
    15:00 +36°C° 0 mm 2 mps 753 mmHg 32%
    16:00 +36°C° 0 mm 2 mps 752 mmHg 33%
    17:00 +34°C° 0 mm 2 mps 753 mmHg 37%
    18:00 +32°C° 0 mm 1 mps 753 mmHg 41%
    19:00 +31°C° 0 mm 1 mps 753 mmHg 45%
    20:00 +30°C° 0 mm 1 mps 753 mmHg 47%
    21:00 +30°C° 0 mm 1 mps 754 mmHg 49%
    22:00 +30°C° 0 mm 1 mps 754 mmHg 51%
    23:00 +29°C° 0.1 mm 1 mps 754 mmHg 53%

    21 October, Sunday

    Time Temperature Precipitation Wind Pressure Humidity
    00:00 +29°C° 0.1 mm 1 mps 753 mmHg 55%
    01:00 +29°C° 0.1 mm 1 mps 753 mmHg 57%
    02:00 +29°C° 0 mm 1 mps 753 mmHg 58%
    03:00 +29°C° 0 mm 1 mps 753 mmHg 60%
    04:00 +28°C° 0 mm 1 mps 753 mmHg 62%
    05:00 +29°C° 0 mm 1 mps 753 mmHg 61%
    06:00 +29°C° 0 mm 2 mps 754 mmHg 60%
    07:00 +29°C° 0 mm 2 mps 754 mmHg 59%
    08:00 +31°C° 0 mm 2 mps 754 mmHg 51%
    09:00 +33°C° 0 mm 1 mps 755 mmHg 43%
    10:00 +34°C° 0 mm 1 mps 755 mmHg 35%
    11:00 +36°C° 0 mm 2 mps 754 mmHg 32%
    12:00 +37°C° 0 mm 2 mps 754 mmHg 29%
    13:00 +38°C° 0 mm 2 mps 753 mmHg 26%
    14:00 +38°C° 0.1 mm 2 mps 753 mmHg 27%
    15:00 +37°C° 0.1 mm 2 mps 753 mmHg 28%
    16:00 +37°C° 0.1 mm 2 mps 752 mmHg 28%
    17:00 +35°C° 0.1 mm 2 mps 753 mmHg 34%
    18:00 +33°C° 0.1 mm 1 mps 753 mmHg 39%
    19:00 +31°C° 0.1 mm 1 mps 753 mmHg 44%
    20:00 +30°C° 0 mm 1 mps 753 mmHg 47%
    21:00 +30°C° 0 mm 1 mps 754 mmHg 49%
    22:00 +29°C° 0 mm 2 mps 754 mmHg 52%
    23:00 +29°C° 0 mm 1 mps 754 mmHg 54%

    22 October, Monday

    Time Temperature Precipitation Wind Pressure Humidity
    00:00 +28°C° 0 mm 1 mps 753 mmHg 56%
    01:00 +28°C° 0 mm 1 mps 753 mmHg 58%
    02:00 +28°C° 0 mm 1 mps 753 mmHg 58%
    03:00 +25°C° 0 mm 0 mps 753 mmHg 58%
    04:00 +25°C° 0 mm 0 mps 753 mmHg 58%
    05:00 +25°C° 0 mm 0 mps 753 mmHg 55%
    06:00 +28°C° 0 mm 1 mps 754 mmHg 52%
    07:00 +28°C° 0 mm 1 mps 754 mmHg 49%
    08:00 +31°C° 0 mm 1 mps 754 mmHg 42%
    09:00 +33°C° 0 mm 1 mps 755 mmHg 35%
    10:00 +35°C° 0 mm 1 mps 755 mmHg 28%
    11:00 +36°C° 0 mm 1 mps 754 mmHg 25%
    12:00 +38°C° 0 mm 2 mps 754 mmHg 23%
    13:00 +39°C° 0 mm 2 mps 753 mmHg 20%
    14:00 +38°C° 0 mm 2 mps 753 mmHg 21%
    15:00 +38°C° 0 mm 2 mps 753 mmHg 22%
    16:00 +37°C° 0 mm 3 mps 752 mmHg 23%
    17:00 +35°C° 0 mm 3 mps 753 mmHg 29%
    18:00 +33°C° 0 mm 3 mps 753 mmHg 35%
    19:00 +30°C° 0 mm 3 mps 753 mmHg 41%
    20:00 +29°C° 0 mm 3 mps 753 mmHg 43%
    21:00 +29°C° 0 mm 3 mps 754 mmHg 45%
    22:00 +28°C° 0 mm 3 mps 754 mmHg 46%
    23:00 +27°C° 0 mm 2 mps 754 mmHg 47%
    Show more